Regional Weather Roundup
Issued by NWS

Home | Current Version | Previous Version | Text Only | Print | Product List | Glossary On
Versions: 1 2 3 4 5 6 7 8 9 10 11 12 13 14 15 16 17 18 19 20 21 22 23 24 25 26 27
000
ASUS44 KBMX 070010
RWRAL

ALABAMA REGIONAL WEATHER ROUNDUP
NATIONAL WEATHER SERVICE BIRMINGHAM AL
700 PM CDT FRI MAY 06 2016

NOTE: "FAIR" INDICATES FEW OR NO CLOUDS BELOW 12,000 FEET
WITH NO SIGNIFICANT WEATHER AND/OR OBSTRUCTIONS TO VISIBILITY.

THE REMARK "TC" DENOTES TEMPERATURE IN DEGREES CELSIUS.

ALZ001>011-014-016>018-020-070100-
NORTH ALABAMA

CITY           SKY/WX    TMP DP  RH WIND       PRES   REMARKS
MUSCLE SHOALS  CLEAR     71  40  32 NW10G18   29.99S
6HR MIN TEMP:  71; 6HR MAX TEMP:  75;

HUNTSVILLE     PTCLDY    69  40  34 NW9       29.96S
6HR MIN TEMP:  69; 6HR MAX TEMP:  77;

DECATUR        CLEAR     68  41  37 NW10      29.97S
6HR MIN TEMP:  68; 6HR MAX TEMP:  73;

HALEYVILLE     FAIR      66  45  46 NW8       30.00F
6HR MIN TEMP:  66; 6HR MAX TEMP:  71;

GADSDEN        CLEAR     67  44  43 NW7       29.96R
6HR MIN TEMP:  67; 6HR MAX TEMP:  72;

$$

ALZ012-013-022-023-030>036-040>044-070100-
WEST CENTRAL ALABAMA

CITY           SKY/WX    TMP DP  RH WIND       PRES   REMARKS
TUSCALOOSA     CLEAR     71  41  33 NW8       29.97S
6HR MIN TEMP:  71; 6HR MAX TEMP:  76;

$$

ALZ015-024>027-033>036-040>044-070100-
CENTRAL ALABAMA

CITY           SKY/WX    TMP DP  RH WIND       PRES   REMARKS
BIRMINGHAM     PTCLDY    70  41  34 NW9       29.99S
6HR MIN TEMP:  69; 6HR MAX TEMP:  73;

MONTGOMERY     CLEAR     72  42  34 N8        29.95R
6HR MIN TEMP:  72; 6HR MAX TEMP:  76;

SHELBY CO ARPT CLEAR     70  41  34 N6        29.96S
6HR MIN TEMP:  69; 6HR MAX TEMP:  74;

MAXWELL AFB    CLEAR     70  44  38 N9        29.94R
6HR MIN TEMP:  70; 6HR MAX TEMP:  75;

GREENVILLE     FAIR      70  43  37 N8        29.95R
6HR MIN TEMP:  70; 6HR MAX TEMP:  75;

$$

ALZ019-021-028-029-037-038-045>048-070100-
EAST CENTRAL ALABAMA

CITY           SKY/WX    TMP DP  RH WIND       PRES   REMARKS
ANNISTON       CLEAR     69  39  33 NW5       29.95R
6HR MIN TEMP:  68; 6HR MAX TEMP:  72;

ALEXANDER CITY CLEAR     67  47  48 NW13G20   29.95S
6HR MIN TEMP:  67; 6HR MAX TEMP:  73;

AUBURN         CLEAR     67  43  41 NW8       29.95R
6HR MIN TEMP:  67; 6HR MAX TEMP:  72;

$$

ALZ051>064-070100-
SOUTHWEST ALABAMA

CITY           SKY/WX    TMP DP  RH WIND       PRES   REMARKS
MOBILE         CLEAR     72  48  42 N7        29.97S
6HR MIN TEMP:  71; 6HR MAX TEMP:  76;

BROOKLEY FIELD CLEAR     73  46  38 NW16      29.97S
6HR MIN TEMP:  70; 6HR MAX TEMP:  77;

EVERGREEN      CLEAR     70  46  42 NW3       29.96S
6HR MIN TEMP:  70; 6HR MAX TEMP:  76;

$$

ALZ049-050-065>069-070100-
SOUTHEAST ALABAMA

CITY           SKY/WX    TMP DP  RH WIND       PRES   REMARKS
DOTHAN         CLEAR     71  41  33 N12       29.95S
6HR MIN TEMP:  71; 6HR MAX TEMP:  76;

OZARK          CLEAR     71  43  36 N9        29.93R
6HR MIN TEMP:  71; 6HR MAX TEMP:  76;

TROY           CLEAR     70  44  39 N9        29.95R
6HR MIN TEMP:  70; 6HR MAX TEMP:  75;

EUFAULA        FAIR      70  44  39 NW3       29.91R
6HR MIN TEMP:  70; 6HR MAX TEMP:  76;

$$




USA.gov is the U.S. government's official web portal to all federal, state and local government web resources and services.